Current Version              Previous Version:    01  02  03  04  05  06  07  08  09  10  11  12  13  14  15  16  17  18  19  20  21  22  23  24  25  26  27  28  29  30  
   31  32  33  34  35  36  37  38  39  40  41  42  43  44  45  46  47  48  49  50  51  52  53  54  55  56  57  58  59  60  

[Printable]
934
ASUS44 KFWD 240201
RWRTX
NORTH TEXAS HOURLY WEATHER ROUNDUP
NATIONAL WEATHER SERVICE FORT WORTH TX
900 PM CDT WED JUL 23 2014

NOTE: "FAIR" INDICATES FEW OR NO CLOUDS BELOW 12,000 FEET WITH NO
SIGNIFICANT WEATHER AND/OR OBSTRUCTIONS TO VISIBILITY.

TXZ118-119-240300-
DALLAS/FORT WORTH METROPLEX

CITY           SKY/WX    TMP DP  RH WIND       PRES   REMARKS
DFW AIRPORT    CLOUDY    87  70  56 E17       30.03R HX  92
DALLAS LOVE    CLOUDY    82  68  62 SE22      30.05R
FTW MEACHAM    CLOUDY    91  71  51 E5        30.03R HX  97
DAL-EXECUTIVE  CLOUDY    81  67  62 E14G31    30.06R
FTW-ALLIANCE   CLOUDY    86  72  62 E3        30.03R HX  92
FTW-NAS-JRB    CLOUDY    92  68  45 NE7       30.07R HX  96
FTW-SPINKS     CLOUDY    88  66  48 E7        30.06R HX  91
ARLINGTON      CLOUDY    91  68  46 E13       30.04R HX  95
GRAND PRAIRIE  CLOUDY    90  67  46 E12       30.05R HX  92
LANCASTER      CLOUDY    77  65  66 E13G18    30.09R
$$

TXZ091>094-102>105-117-120-121-131>134-240300-
NORTH CENTRAL TEXAS

CITY           SKY/WX    TMP DP  RH WIND       PRES   REMARKS
SHRMAN/DENISON CLOUDY    79  67  65 E10G16    30.06F
GAINESVILLE    CLOUDY    81  69  67 E13       30.08R
BOWIE          MOCLDY    85  76  75 SE6       30.04F HX  94
BRIDGEPORT     CLOUDY    85  69  59 CALM      30.07R
DECATUR        CLOUDY    86  70  59 CALM      30.07R HX  91
DENTON         CLOUDY    89  72  56 E3        30.03R HX  96
MCKINNEY       CLOUDY    75  68  78 E7        30.07R
GREENVILLE     CLOUDY    72  68  88 S5        30.08F
TERRELL        CLOUDY    75  70  84 E7        30.09F
WAXAHACHIE     CLOUDY    79  64  60 E17G26    30.10R
CLEBURNE       CLOUDY    88  68  51 E8        30.07R HX  91
GRANBURY       CLOUDY    89  69  50 CALM      30.05R HX  93
$$

TXZ083>090-098>101-113>116-127>130-139>142-154-155-240300-
WESTERN NORTH TEXAS

CITY           SKY/WX    TMP DP  RH WIND       PRES   REMARKS
WICHITA FALLS  TSTM      86  72  62 E29       30.08R HX  92
WF-KICKAPOO    MOCLDY    90  71  52 E8        30.07R THUNDER HX  96
VERNON         PTCLDY    91  66  43 SE6       30.05R HX  94
ABILENE        PTCLDY    92  63  38 NE3       30.07R HX  93
ABILENE-DYESS  PTCLDY    90  66  45 E3        30.06R HX  92
BRECKENRIDGE   CLOUDY    92  63  38 E7        30.05R HX  93
MINERAL WELLS  CLOUDY    87  69  54 E8        30.04R HX  91
STEPHENVILLE   CLOUDY    85  65  52 CALM      30.09R
COMANCHE       CLOUDY    84  64  51 SE5       30.06R
BROWNWOOD      CLOUDY    86  66  51 E7        30.06R
COLEMAN        CLOUDY    87  65  47 SE6       30.06S
BRADY          CLEAR     88  64  45 E5        30.07R
$$

TXZ143>147-156>162-174-175-240300-
CENTRAL TEXAS

CITY           SKY/WX    TMP DP  RH WIND       PRES   REMARKS
WACO           CLOUDY    87  68  52 E9        30.04R HX  90
WACO-MCGREGOR  CLOUDY    88  64  45 E10       30.05R
HILLSBORO      CLOUDY    86  67  52 E6        30.06R
CORSICANA      LGT RAIN  77  66  68 NE18G35   30.11R
MEXIA          CLOUDY    82  71  69 NE3       30.06R
HEARNE         CLOUDY    88  74  61 N6        30.03R HX  97
CAMERON        CLOUDY    84  69  61 NE5       30.02R
TEMPLE         CLOUDY    84  64  51 NE10      30.03R
KILLEEN        MOCLDY    88  66  48 NE8       30.04R HX  90
KILLEEN-SKYLRK CLOUDY    88  66  48 E8        30.03R HX  90
FORT HOOD      CLOUDY    89  65  44 NE5       30.03R HX  91
GATESVILLE     CLOUDY    86  64  48 NE5       30.05R
HAMILTON       CLOUDY    85  66  53 E3        30.06S
LAMPASAS       MOCLDY    83  68  59 NE3       30.04R
$$

TXZ095>097-106>112-122>126-135>138-148>153-164>167-240300-
EAST TEXAS

CITY           SKY/WX    TMP DP  RH WIND       PRES   REMARKS
PARIS          CLOUDY    72  64  78 E7        30.07S
SULPHUR SPRNGS LGT RAIN  71  71  98 SE12G18   30.06F
CLARKSVILLE    CLOUDY    72  71  96 E8        30.09R
MOUNT PLEASANT CLOUDY    70  69  96 SE12      30.10F
GILMER         RAIN      72  72 100 SE7       30.17R
MINEOLA        RAIN      72  70  94 E5        30.10F
TYLER          RAIN      72  68  87 E16G22    30.15S
LONGVIEW       HVY RAIN  71  68  90 VRB6      30.16F FOG
MARSHALL       CLOUDY    73  71  91 NW12G18   30.12F
ATHENS         TSTM      70  68  94 NE10G18   30.12R
JACKSONVILLE   TSTM      72  68  89 N10G31    30.19R
HENDERSON      TSTM      70  69  96 N15G26    30.18R
NACOGDOCHES    CLOUDY    81  68  65 N15G33    30.11R
LUFKIN         CLOUDY    87  72  60 N8        30.06R HX  93
$$

SUPPLEMENTAL OBSERVATIONS (CENTRAL)

CITY           SKY/WX    TMP DP  RH WIND       PRES   REMARKS
$$

SUPPLEMENTAL OBSERVATIONS (WEST)

CITY           SKY/WX    TMP DP  RH WIND       PRES   REMARKS
$$

SUPPLEMENTAL OBSERVATIONS (EAST)

CITY           SKY/WX    TMP DP  RH WIND       PRES   REMARKS
$$

SUPPLEMENTAL OBSERVATIONS ARE A COLLECTION OF AUTOMATED INSTRUMENTS
THAT ARE MAINTAINED BY A VARIETY OF FEDERAL AND STATE AGENCIES.
CERTAIN ELEMENTS...SUCH AS HUMIDITY VALUES AND SUSTAINED WIND
SPEEDS...MAY BE APPROXIMATED.